CW8593 Weather Reports


Display with metric or nautical units.
time (UTC)temp
F
wind
direction
speed
MPH
gust
MPH
rain 1hr
in
rain 24hr
in
rain mn
in
humidity
%
barometer
mb
20170124231258 48 309 3.0 5.0 0.00 0.03 0.01 59 1019.2
20170124225258 48 309 5.0 8.0 0.00 0.03 0.01 59 1019.2
20170124224758 48 308 6.0 7.0 0.00 0.03 0.01 59 1019.2
20170124224258 48 313 5.0 9.0 0.00 0.03 0.01 59 1019.3
20170124222758 47 332 3.0 9.0 0.00 0.03 0.01 62 1019.3
20170124221258 46 306 2.0 5.0 0.00 0.03 0.01 67 1019.3
20170124220758 46 303 0.0 3.0 0.00 0.03 0.01 67 1019.1
20170124215758 46 303 2.0 3.0 0.00 0.04 0.01 68 1019.1
20170124215257 46 303 1.0 2.0 0.00 0.04 0.01 68 1019.1
20170124213758 46 303 0.0 2.0 0.00 0.04 0.01 67 1019.1
20170124212300 46 303 2.0 3.0 0.00 0.04 0.01 69 1019.0
20170124211800 46 303 0.0 1.0 0.00 0.04 0.01 68 1019.0
20170124211258 46 303 0.0 0.0 0.00 0.04 0.01 68 1019.0
20170124205259 47 303 2.0 5.0 0.00 0.04 0.01 65 1019.0
20170124204800 47 279 3.0 5.0 0.00 0.04 0.01 67 1019.0
20170124204258 47 241 2.0 3.0 0.00 0.04 0.01 68 1019.0
20170124202758 46 228 2.0 3.0 0.00 0.04 0.01 71 1019.0
20170124202258 46 228 1.0 3.0 0.00 0.04 0.01 72 1019.0
20170124201757 46 228 2.0 3.0 0.00 0.04 0.01 73 1019.0
20170124194257 45 228 1.0 3.0 0.00 0.04 0.01 74 1018.8
20170124193258 45 228 0.0 3.0 0.00 0.04 0.01 73 1018.8
20170124192758 45 228 2.0 3.0 0.00 0.04 0.01 73 1018.8
20170124191258 46 228 0.0 0.0 0.00 0.04 0.01 73 1018.7
20170124190758 46 228 0.0 0.0 0.00 0.04 0.01 73 1018.7
20170124183759 46 228 2.0 3.0 0.00 0.04 0.01 74 1018.5
20170124182757 46 228 1.0 3.0 0.00 0.04 0.01 75 1018.4
20170124182257 46 228 3.0 5.0 0.00 0.04 0.01 75 1018.4
20170124174258 47 227 0.0 0.0 0.00 0.04 0.01 76 1018.2
20170124173758 47 227 0.0 2.0 0.00 0.04 0.01 75 1018.1
20170124173257 47 227 0.0 1.0 0.00 0.04 0.01 75 1018.1
20170124171257 48 137 2.0 3.0 0.00 0.04 0.01 73 1018.1
20170124165258 52 136 2.0 3.0 0.00 0.04 0.01 67 1018.0
20170124164757 52 135 0.0 2.0 0.00 0.04 0.01 65 1018.0
20170124164257 53 135 0.0 2.0 0.00 0.04 0.01 65 1018.0
20170124162759 53 135 1.0 2.0 0.00 0.04 0.01 62 1018.1
20170124161757 53 135 0.0 5.0 0.00 0.04 0.01 62 1017.9
20170124161258 53 135 0.0 5.0 0.00 0.04 0.01 62 1017.7
20170124152758 53 137 1.0 3.0 0.00 0.04 0.01 62 1017.7
20170124152258 53 136 1.0 3.0 0.00 0.04 0.01 62 1017.6
20170124151257 53 137 3.0 6.0 0.00 0.04 0.01 61 1017.6
20170124145257 54 93 1.0 7.0 0.00 0.04 0.01 59 1017.7
20170124144757 54 92 1.0 3.0 0.00 0.04 0.01 58 1017.7
20170124144257 54 92 1.0 3.0 0.00 0.04 0.01 60 1017.6
20170124143757 53 91 1.0 3.0 0.00 0.04 0.01 59 1017.7
20170124142758 53 92 2.0 3.0 0.00 0.04 0.01 60 1017.7
20170124142257 53 91 1.0 5.0 0.00 0.04 0.01 61 1017.7
20170124141258 53 91 1.0 3.0 0.00 0.04 0.01 62 1017.9
20170124140258 52 91 2.0 5.0 0.00 0.04 0.01 63 1017.9
20170124135757 52 91 0.0 3.0 0.00 0.04 0.01 63 1017.9
20170124135257 52 91 1.0 3.0 0.00 0.04 0.01 63 1017.9
20170124134757 52 91 3.0 7.0 0.00 0.04 0.01 63 1018.0
20170124133757 52 117 4.0 9.0 0.00 0.04 0.01 62 1018.2
20170124132757 52 130 2.0 5.0 0.00 0.04 0.01 62 1018.2
20170124132257 52 130 3.0 5.0 0.00 0.04 0.01 61 1018.2
20170124131757 53 130 2.0 3.0 0.00 0.04 0.01 61 1018.2
20170124131257 53 130 1.0 3.0 0.00 0.04 0.01 61 1018.1
20170124130758 53 130 1.0 7.0 0.00 0.04 0.01 61 1018.1
20170124125257 53 145 3.0 8.0 0.00 0.04 0.01 61 1018.2
20170124122758 53 165 5.0 9.0 0.00 0.04 0.01 59 1018.7
20170124121257 53 125 5.0 9.0 0.00 0.04 0.01 58 1018.8
20170124120757 54 133 4.0 8.0 0.00 0.04 0.01 57 1018.8
20170124120257 54 140 5.0 8.0 0.00 0.04 0.01 56 1018.9
20170124115257 54 138 4.0 7.0 0.00 0.04 0.01 58 1019.0
20170124114757 54 125 5.0 10.0 0.00 0.04 0.01 58 1019.0
20170124113757 54 140 4.0 8.0 0.00 0.04 0.01 59 1019.1
20170124111257 54 148 2.0 6.0 0.00 0.04 0.01 60 1019.1
20170124110257 54 152 4.0 6.0 0.00 0.04 0.01 58 1019.1
20170124105758 54 162 3.0 6.0 0.00 0.05 0.01 59 1019.0
20170124105257 54 165 2.0 7.0 0.00 0.05 0.01 57 1019.0
20170124104757 54 3 1.0 3.0 0.00 0.05 0.01 55 1019.1
20170124103758 52 2 2.0 5.0 0.00 0.06 0.01 58 1018.9
20170124095757 50 333 6.0 12.0 0.00 0.08 0.00 59 1018.9
20170124093755 49 325 9.0 13.0 0.00 0.10 0.00 59 1019.0
20170124092755 48 306 3.0 8.0 0.00 0.11 0.00 73 1019.8
20170124004259 47 306 1.0 3.0 0.00 0.12 0.00 76 1015.6
20170124003800 47 307 1.0 3.0 0.00 0.12 0.00 77 1015.6
20170124002259 47 306 2.0 3.0 0.00 0.12 0.00 77 1015.7
20170124001800 47 307 0.0 0.0 0.00 0.12 0.00 77 1015.8
20170124000800 47 307 2.0 3.0 0.00 0.12 0.00 77 1015.9
20170124000300 47 307 0.0 0.0 0.00 0.12 0.00 77 1015.9
20170123235800 47 307 0.0 0.0 0.00 0.12 0.12 76 1015.9
20170123235259 47 307 0.0 2.0 0.00 0.12 0.12 76 1016.1
20170123233800 47 307 0.0 1.0 0.00 0.12 0.12 77 1016.1